sat.trackr.live / text

‹ back to catalog

STARLINK-35757

NORAD 66270 · 2025-247F

PAYLOAD ACTIVE UNKNOWN

§ Identity

Operator
Country
US
Launch date
2025-10-31
Launch site
AFWTR
Launch vehicle
Mass (kg)
RCS (m²)

Purposes: comms

External: N2YO · Heavens-Above · Gunter

§ Orbital elements

Epoch: 2026-09-20T13:24:32.436000Z

Period
93.85 min
Inclination
53.1647°
Eccentricity
0.0000872
Mean motion
15.34414154 rev/d
Perigee alt
462.1 km
Apogee alt
463.3 km
Semi-major
6,840.8 km
B*
7.7037e-4
RAAN
1.7194°
Arg perigee
89.3758°
Mean anomaly
270.7345°
Rev number
5,098

§ Raw data

STARLINK-357571 66270U 25247F   26263.55870875  .00025753  00000+0  77037-3 0  99932 66270  53.1647   1.7194 0000872  89.3758 270.7345 15.34414154 50980

JSON: /api/v1/satellites/66270 · /tle

For live sub-satellite position, see the globe view (requires WebGL).

§ Visibility from observer

Set your observer location to see the next 7 days of passes ≥ 10°. The values pass through the URL so the page stays shareable.

No JS? Fill the form by hand. The geolocation button needs JavaScript.